TimeCST,TemperatureF,Dew PointF,Humidity,Sea Level PressureIn,VisibilityMPH,Wind Direction,Wind SpeedMPH,Gust SpeedMPH,PrecipitationIn,Events,Conditions,WindDirDegrees,DateUTC
12:15 AM,21.2,19.4,93,29.47,5.0,SSW,15.0,24.2,N/A,,Overcast,210,2013-01-16 06:15:00
12:35 AM,23.0,19.4,86,29.47,6.0,SW,13.8,-,N/A,,Overcast,220,2013-01-16 06:35:00
12:55 AM,23.0,21.2,93,29.48,9.0,WSW,12.7,-,N/A,,Overcast,240,2013-01-16 06:55:00
1:15 AM,26.6,26.6,100,29.50,10.0,WNW,16.1,-,N/A,,Overcast,300,2013-01-16 07:15:00
1:35 AM,28.4,26.6,93,29.51,8.0,NW,15.0,24.2,N/A,,Overcast,310,2013-01-16 07:35:00
1:55 AM,26.6,21.2,80,29.52,9.0,NW,23.0,31.1,N/A,,Overcast,310,2013-01-16 07:55:00
2:15 AM,24.8,21.2,86,29.53,10.0,NW,21.9,28.8,N/A,,Overcast,310,2013-01-16 08:15:00
2:35 AM,23.0,19.4,86,29.55,10.0,NW,21.9,27.6,N/A,,Overcast,310,2013-01-16 08:35:00
2:55 AM,21.2,19.4,93,29.57,10.0,NW,19.6,-,N/A,,Overcast,310,2013-01-16 08:55:00
3:15 AM,21.2,17.6,86,29.59,10.0,WNW,16.1,-,N/A,,Overcast,300,2013-01-16 09:15:00
3:35 AM,19.4,17.6,93,29.60,9.0,NW,21.9,-,N/A,,Overcast,310,2013-01-16 09:35:00
3:55 AM,19.4,17.6,93,29.62,9.0,NW,20.7,27.6,N/A,,Overcast,320,2013-01-16 09:55:00
4:15 AM,19.4,15.8,86,29.63,10.0,NW,19.6,-,N/A,,Overcast,320,2013-01-16 10:15:00
4:35 AM,17.6,15.8,93,29.63,10.0,NNW,17.3,-,N/A,,Overcast,330,2013-01-16 10:35:00
4:55 AM,17.6,15.8,93,29.64,10.0,North,18.4,-,N/A,,Overcast,350,2013-01-16 10:55:00
5:15 AM,15.8,12.2,86,29.65,10.0,NNW,15.0,-,N/A,,Overcast,340,2013-01-16 11:15:00
5:35 AM,14.0,10.4,86,29.66,10.0,NNW,13.8,20.7,N/A,,Overcast,340,2013-01-16 11:35:00
5:55 AM,12.2,6.8,79,29.68,10.0,NNW,17.3,-,N/A,,Overcast,330,2013-01-16 11:55:00
6:35 AM,12.2,6.8,79,29.70,10.0,NNW,9.2,-,N/A,,Mostly Cloudy,330,2013-01-16 12:35:00
6:55 AM,12.2,6.8,79,29.71,10.0,NNW,10.4,-,N/A,,Overcast,330,2013-01-16 12:55:00
7:15 AM,12.2,6.8,79,29.71,10.0,NNW,8.1,-,N/A,,Mostly Cloudy,340,2013-01-16 13:15:00
7:35 AM,12.2,8.6,85,29.73,10.0,NNW,13.8,-,N/A,,Scattered Clouds,340,2013-01-16 13:35:00
7:55 AM,12.2,5.0,73,29.76,10.0,NW,11.5,-,N/A,,Mostly Cloudy,320,2013-01-16 13:55:00
8:15 AM,10.4,3.2,73,29.77,10.0,NNW,17.3,-,N/A,,Mostly Cloudy,330,2013-01-16 14:15:00
8:35 AM,8.6,3.2,79,29.79,10.0,NNW,16.1,-,N/A,,Partly Cloudy,330,2013-01-16 14:35:00
8:55 AM,8.6,1.4,73,29.81,10.0,NNW,16.1,-,N/A,,Clear,330,2013-01-16 14:55:00
9:15 AM,6.8,-0.4,72,29.82,10.0,NNW,13.8,-,N/A,,Clear,330,2013-01-16 15:15:00
9:35 AM,6.8,-2.2,67,29.84,10.0,NNW,12.7,-,N/A,,Clear,330,2013-01-16 15:35:00
9:55 AM,5.0,-2.2,72,29.85,10.0,NNW,12.7,-,N/A,,Clear,340,2013-01-16 15:55:00
10:15 AM,5.0,-2.2,72,29.87,10.0,NNW,17.3,-,N/A,,Clear,330,2013-01-16 16:15:00
10:35 AM,3.2,-5.8,66,29.88,10.0,North,15.0,19.6,N/A,,Clear,350,2013-01-16 16:35:00
10:55 AM,3.2,-2.2,78,29.90,10.0,NNW,16.1,-,N/A,,Clear,330,2013-01-16 16:55:00
11:15 AM,3.2,-5.8,66,29.91,10.0,NNW,17.3,-,N/A,,Partly Cloudy,330,2013-01-16 17:15:00
11:35 AM,3.2,-5.8,66,29.93,10.0,NNW,13.8,-,N/A,,Clear,330,2013-01-16 17:35:00
11:55 AM,3.2,-5.8,66,29.94,10.0,NNW,15.0,-,N/A,,Clear,330,2013-01-16 17:55:00
12:15 PM,3.2,-7.6,61,29.95,5.0,NNW,16.1,-,N/A,,Clear,330,2013-01-16 18:15:00
12:35 PM,3.2,-7.6,61,29.97,10.0,NW,15.0,-,N/A,,Scattered Clouds,320,2013-01-16 18:35:00
12:55 PM,3.2,-7.6,61,29.98,10.0,NNW,16.1,-,N/A,,Mostly Cloudy,340,2013-01-16 18:55:00
1:15 PM,3.2,-9.4,56,29.98,10.0,NNW,11.5,-,N/A,,Mostly Cloudy,330,2013-01-16 19:15:00
1:35 PM,3.2,-5.8,66,30.01,10.0,NW,16.1,-,N/A,,Overcast,320,2013-01-16 19:35:00
2:15 PM,1.4,-9.4,61,30.03,10.0,NNW,13.8,-,N/A,,Overcast,330,2013-01-16 20:15:00
2:35 PM,1.4,-7.6,66,30.04,10.0,NNW,16.1,-,N/A,,Overcast,340,2013-01-16 20:35:00
2:55 PM,1.4,-9.4,61,30.06,10.0,NNW,16.1,-,N/A,,Mostly Cloudy,330,2013-01-16 20:55:00
3:15 PM,1.4,-14.8,47,30.07,10.0,NNW,16.1,-,N/A,,Partly Cloudy,330,2013-01-16 21:15:00
3:35 PM,1.4,-9.4,61,30.08,10.0,NW,15.0,-,N/A,,Clear,320,2013-01-16 21:35:00
3:55 PM,-0.4,-13.0,55,30.10,10.0,NNW,12.7,-,N/A,,Clear,330,2013-01-16 21:55:00
4:15 PM,-0.4,-11.2,60,30.12,10.0,NNW,15.0,-,N/A,,Clear,330,2013-01-16 22:15:00
4:35 PM,-0.4,-13.0,55,30.15,10.0,NW,13.8,-,N/A,,Clear,310,2013-01-16 22:35:00
4:55 PM,-2.2,-9999,N/A,30.17,10.0,NW,13.8,-,N/A,,Clear,310,2013-01-16 22:55:00
5:15 PM,-2.2,-11.2,66,30.17,10.0,NW,11.5,-,N/A,,Clear,320,2013-01-16 23:15:00
5:55 PM,-5.8,-11.2,77,30.18,10.0,WNW,9.2,-,N/A,,Partly Cloudy,300,2013-01-16 23:55:00
6:15 PM,-5.8,-11.2,77,30.18,10.0,NW,10.4,-,N/A,,Mostly Cloudy,310,2013-01-17 00:15:00
6:35 PM,-5.8,-11.2,77,30.18,10.0,NW,10.4,-,N/A,,Overcast,310,2013-01-17 00:35:00